Temp
-0 -1 -1 -0 -0 -1 -0 1 1 1 1 1 2 2 2 2 3 3 4 4 4 4 4 4 4 4 4 5 5 5 5 5 4 3 5 4 3 3 4 4 4 4 4
-1 -1 -1 -1 -1 -2 -1 -1 -0 -0 -0 1 1 1 1 2 2 3 3 4 3 3 4 4 4 4 5 5 5 5 5 5 5 4 4 3 3 3 3 3 4 4 4
-1 -1 -2 -3 -3 -3 -3 -2 -1 -1 -1 0 0 1 1 2 2 2 3 3 3 3 4 4 4 4 4 5 5 5 4 5 5 4 3 3 3 3 3 2 3 3 2
-2 -2 -2 -3 -3 -4 -3 -2 -1 -1 -1 -1 0 1 1 1 2 2 2 3 3 3 3 4 4 4 4 4 4 4 5 4 4 4 2 3 3 2 1 2 2 2 2
-3 -3 -3 -4 -4 -4 -4 -2 -2 -1 -1 -1 -0 0 1 1 1 1 2 2 2 2 3 4 4 4 4 4 4 4 4 4 3 3 4 3 3 2 1 0 1 1 2
-3 -4 -4 -4 -4 -4 -3 -2 -2 -1 -1 -1 -1 -0 0 1 1 1 2 2 3 3 3 4 3 4 4 4 4 4 3 4 3 2 3 2 3 3 2 1 -1 0 1
-3 -4 -4 -4 -4 -4 -3 -3 -1 -1 -2 -2 -1 -1 -0 -0 0 1 2 2 2 2 2 3 3 3 3 3 3 3 3 2 3 3 3 2 2 2 2 0 0 -0 0
-4 -4 -4 -3 -4 -3 -2 -3 -2 -2 -2 -2 -2 -1 -1 0 0 1 1 0 1 2 2 2 3 3 3 3 3 2 2 2 2 2 3 2 2 2 1 -0 -0 0 0
-4 -5 -4 -4 -3 -4 -2 -1 -1 -2 -1 -2 -2 -1 -1 0 1 1 -0 1 1 2 2 2 2 2 2 2 3 2 2 1 2 2 2 1 1 1 1 1 0 0 0
-4 -3 -5 -5 -3 -3 -1 -2 -1 -1 -1 -1 -1 -0 -0 0 0 -0 1 1 1 1 1 1 1 2 2 1 1 1 1 1 1 2 1 1 1 1 1 1 1 0 0
-3 -2 -2 -2 -4 -3 -1 -1 -1 -1 -1 -0 -0 -1 -0 -0 1 0 1 1 1 1 1 1 1 1 1 2 1 1 1 1 1 1 1 1 1 1 1 1 1 1 0
-3 -3 -2 -2 -1 -2 -1 -2 -1 -1 -1 -1 -0 0 -0 0 0 1 1 1 1 1 1 2 2 1 2 1 1 1 2 1 1 1 1 1 1 1 1 1 1 1 1
-2 -2 -2 -2 -2 -1 -1 -1 -1 -0 -0 1 0 1 1 1 1 1 2 2 2 2 3 2 2 2 2 2 2 2 2 2 1 2 1 1 1 1 1 1 1 1 1
-1 -1 -1 -1 -1 -1 -1 -1 -0 0 1 1 2 2 2 2 2 2 2 2 3 3 3 3 3 3 3 3 3 3 3 2 2 2 2 1 1 1 1 1 1 1 1
-0 -1 -1 -0 -0 -1 -0 -0 0 1 1 1 1 2 2 2 2 2 3 3 3 2 2 2 3 2 2 2 2 2 2 1 1 1 1 1 0 -0 -0 -0 0 -1 -0
-0 -1 -1 -1 -0 -0 -0 0 0 1 1 1 1 1 1 2 2 2 2 2 2 3 3 3 2 2 2 3 3 3 3 2 1 1 -0 -1 -1 -1 -1 -1 -1 -1 -2
-0 -0 -0 -0 -0 -0 -0 -0 0 0 0 1 1 2 2 2 3 2 3 3 2 2 2 2 2 2 2 2 1 1 1 2 1 1 1 -0 -1 -3 -4 -4 -4 -4 -4
0 0 -0 -0 -0 -0 -0 0 0 1 1 1 2 2 3 3 3 3 3 3 3 3 3 2 2 1 0 -0 -1 -1 -1 -2 -3 -3 -4 -4 -4 -5 -5 -6 -6 -5 -5
0 0 0 -0 -0 -0 -0 -0 0 1 1 1 2 2 2 2 2 2 2 2 1 0 -1 -1 -1 -2 -2 -2 -3 -4 -5 -5 -5 -5 -4 -4 -4 -5 -7 -7 -7 -7 -6
0 0 -0 -0 -0 -0 -0 0 0 1 1 1 1 1 1 1 1 1 0 -0 -0 -1 -1 -2 -2 -3 -3 -3 -4 -5 -5 -5 -4 -3 -3 -3 -5 -5 -6 -8 -8 -8 -7
1 0 0 0 -0 -0 -0 -1 -1 -0 -0 -0 -0 -0 -0 0 0 -0 -0 -1 -2 -2 -2 -3 -4 -4 -4 -5 -6 -6 -6 -6 -5 -4 -3 -4 -5 -6 -7 -8 -8 -8 -8
0 0 0 -0 -0 -1 -0 -0 -0 -1 -1 -1 -1 -1 -1 -1 -1 -1 -2 -2 -2 -2 -3 -4 -5 -5 -5 -6 -6 -6 -6 -6 -5 -4 -4 -4 -5 -6 -7 -8 -8 -8 -8
0 -0 -0 -0 -1 -1 -1 -1 -1 -1 -1 -2 -1 -1 -2 -2 -2 -2 -3 -3 -3 -4 -4 -4 -5 -6 -6 -6 -7 -7 -6 -6 -6 -5 -5 -5 -5 -6 -7 -8 -8 -9 -9
-0 -0 -1 -1 -1 -1 -1 -1 -2 -2 -2 -2 -2 -2 -2 -3 -3 -3 -3 -3 -4 -4 -4 -4 -6 -7 -7 -7 -7 -7 -7 -6 -6 -6 -5 -5 -6 -6 -7 -8 -8 -10 -9
-0 -1 -1 -1 -1 -1 -2 -2 -2 -2 -2 -2 -2 -3 -3 -3 -3 -3 -4 -4 -5 -4 -5 -6 -7 -7 -8 -8 -8 -8 -8 -7 -6 -5 -6 -6 -6 -6 -7 -8 -10 -10 -9
-1 -1 -1 -1 -1 -2 -2 -2 -2 -2 -2 -3 -3 -3 -3 -3 -3 -4 -4 -5 -5 -6 -7 -8 -8 -9 -9 -9 -9 -9 -9 -8 -7 -7 -7 -6 -7 -7 -8 -9 -9 -9 -9
Height
3056 3054 3051 3048 3046 3048 3053 3056 3062 3071 3077 3081 3086 3090 3096 3100 3102 3104 3107 3109 3110 3110 3109 3109 3110 3111 3111 3112 3113 3114 3112 3112 3115 3114 3113 3118 3117 3120 3123 3126 3127 3127 3128
3049 3045 3042 3038 3035 3037 3041 3046 3051 3059 3066 3073 3079 3084 3088 3091 3095 3098 3101 3102 3102 3102 3102 3102 3103 3103 3103 3104 3104 3105 3105 3104 3105 3108 3103 3105 3110 3111 3113 3117 3119 3121 3121
3040 3038 3034 3030 3027 3028 3032 3036 3042 3050 3057 3064 3070 3074 3079 3083 3087 3092 3094 3094 3094 3094 3094 3094 3094 3094 3093 3093 3094 3096 3096 3095 3095 3099 3099 3095 3097 3103 3104 3108 3112 3113 3113
3037 3032 3027 3023 3021 3021 3024 3028 3032 3038 3047 3054 3060 3066 3072 3076 3081 3084 3084 3086 3085 3085 3085 3084 3083 3082 3081 3081 3083 3084 3085 3086 3085 3087 3088 3092 3092 3091 3096 3100 3103 3103 3105
3031 3027 3021 3018 3016 3015 3017 3021 3026 3030 3037 3045 3053 3059 3064 3069 3072 3075 3076 3077 3077 3076 3075 3073 3072 3070 3070 3069 3069 3072 3072 3072 3076 3077 3080 3083 3081 3082 3084 3087 3092 3095 3099
3027 3020 3017 3014 3011 3010 3012 3016 3023 3027 3033 3041 3047 3052 3057 3061 3064 3067 3067 3067 3067 3065 3062 3061 3060 3059 3057 3058 3059 3060 3061 3062 3067 3068 3071 3071 3074 3075 3076 3077 3081 3086 3086
3024 3018 3013 3010 3008 3009 3009 3011 3017 3021 3026 3033 3039 3045 3051 3054 3057 3059 3059 3059 3057 3056 3054 3053 3052 3052 3052 3051 3052 3052 3054 3057 3056 3059 3062 3062 3063 3065 3066 3068 3072 3074 3076
3023 3017 3012 3007 3007 3004 3004 3008 3012 3017 3024 3030 3036 3040 3044 3049 3051 3052 3052 3051 3050 3051 3049 3048 3047 3046 3046 3045 3045 3047 3049 3049 3052 3051 3050 3053 3053 3056 3058 3060 3063 3063 3063
3028 3020 3015 3009 3004 3000 2997 3004 3010 3015 3022 3027 3032 3036 3039 3042 3043 3045 3047 3047 3044 3045 3044 3042 3041 3040 3040 3040 3040 3042 3045 3045 3044 3044 3044 3046 3048 3050 3051 3053 3054 3053 3052
3032 3026 3020 3012 3006 3001 3003 3006 3011 3016 3021 3024 3026 3029 3033 3036 3039 3039 3041 3042 3039 3039 3038 3037 3037 3036 3036 3035 3035 3035 3035 3036 3036 3036 3037 3037 3039 3040 3042 3044 3044 3043 3041
3034 3029 3025 3020 3016 3009 3008 3010 3015 3016 3019 3022 3024 3026 3029 3033 3035 3036 3037 3036 3035 3034 3033 3033 3032 3033 3033 3032 3032 3033 3032 3032 3031 3031 3031 3031 3032 3033 3032 3031 3031 3030 3031
3037 3032 3028 3025 3023 3018 3019 3020 3019 3021 3021 3022 3023 3024 3030 3032 3032 3033 3033 3033 3033 3032 3030 3031 3031 3030 3030 3029 3028 3027 3026 3025 3025 3025 3024 3024 3024 3022 3022 3021 3020 3019 3019
3037 3035 3031 3028 3026 3026 3026 3027 3027 3025 3025 3026 3026 3029 3030 3031 3031 3031 3031 3029 3028 3027 3028 3027 3026 3026 3024 3023 3021 3020 3019 3018 3017 3015 3013 3012 3011 3010 3009 3009 3007 3006 3005
3040 3036 3036 3035 3031 3030 3029 3028 3028 3028 3028 3028 3029 3029 3029 3029 3028 3027 3026 3025 3024 3022 3021 3019 3018 3016 3015 3013 3012 3010 3008 3006 3004 3003 3001 2999 2997 2995 2993 2992 2991 2990 2989
3042 3039 3036 3035 3034 3033 3032 3031 3030 3029 3028 3028 3028 3027 3026 3026 3025 3024 3021 3019 3017 3014 3012 3010 3008 3006 3003 3001 2999 2996 2993 2990 2989 2987 2985 2982 2980 2978 2976 2974 2974 2971 2970
3043 3041 3038 3036 3034 3032 3032 3031 3030 3030 3028 3027 3026 3025 3023 3021 3020 3017 3015 3013 3010 3007 3005 3002 2999 2996 2992 2989 2985 2980 2976 2973 2970 2968 2966 2963 2960 2959 2957 2956 2954 2953 2949
3043 3041 3039 3038 3037 3035 3033 3032 3030 3028 3027 3026 3024 3022 3019 3016 3014 3012 3009 3006 3003 3001 2997 2994 2991 2988 2984 2980 2975 2968 2961 2957 2954 2951 2947 2945 2943 2939 2937 2935 2934 2932 2931
3042 3040 3038 3037 3036 3034 3032 3030 3028 3027 3025 3022 3019 3017 3014 3012 3010 3007 3004 3000 2996 2992 2989 2985 2980 2977 2971 2965 2960 2955 2950 2947 2942 2937 2933 2930 2927 2925 2920 2914 2910 2910 2912
3038 3037 3036 3035 3033 3032 3030 3028 3025 3023 3020 3017 3014 3011 3008 3005 3003 3000 2997 2993 2989 2985 2980 2975 2969 2963 2958 2951 2945 2939 2934 2931 2927 2924 2920 2915 2911 2909 2906 2899 2895 2893 2891
3034 3033 3032 3031 3030 3028 3026 3024 3021 3018 3015 3013 3009 3006 3003 3000 2996 2992 2988 2985 2980 2976 2972 2965 2956 2950 2945 2939 2933 2927 2921 2918 2914 2912 2910 2906 2903 2898 2892 2887 2883 2878 2878
3031 3030 3028 3027 3025 3024 3022 3019 3016 3012 3009 3007 3004 3001 2998 2994 2990 2985 2981 2977 2972 2965 2960 2955 2950 2945 2938 2933 2927 2922 2914 2909 2905 2903 2900 2896 2891 2887 2882 2877 2872 2868 2867
3026 3025 3024 3022 3020 3019 3016 3014 3011 3008 3005 3001 2998 2994 2990 2987 2983 2979 2973 2966 2962 2958 2953 2947 2944 2937 2932 2924 2920 2916 2910 2904 2896 2892 2888 2885 2881 2876 2870 2867 2864 2861 2858
3020 3019 3018 3016 3015 3013 3011 3008 3006 3003 3000 2996 2992 2987 2983 2980 2976 2971 2967 2961 2955 2949 2945 2939 2935 2933 2927 2919 2912 2907 2902 2897 2890 2884 2878 2873 2869 2864 2859 2856 2853 2853 2851
3014 3014 3012 3011 3009 3007 3005 3003 2999 2996 2993 2989 2985 2981 2977 2973 2968 2964 2961 2956 2950 2944 2937 2929 2922 2917 2912 2906 2901 2896 2892 2887 2881 2873 2869 2864 2859 2854 2850 2848 2847 2845 2844
3007 3007 3006 3004 3002 3000 2998 2995 2992 2989 2986 2982 2978 2975 2972 2968 2964 2960 2954 2948 2940 2932 2923 2917 2911 2904 2901 2897 2891 2885 2880 2876 2870 2863 2859 2855 2850 2846 2843 2841 2840 2840 2838
2999 2999 2998 2996 2994 2992 2990 2988 2985 2982 2979 2975 2972 2969 2966 2962 2958 2954 2948 2940 2933 2926 2918 2910 2903 2899 2893 2886 2881 2877 2874 2869 2863 2857 2851 2847 2843 2840 2837 2836 2836 2836 2833
Wind_Speed
24 25 29 31 39 41 46 52 57 55 51 47 45 42 37 36 36 34 33 36 35 33 32 32 35 38 39 40 42 41 44 50 41 47 49 46 42 42 38 35 32 31 30
22 24 30 29 32 36 41 44 56 56 53 50 46 44 41 38 35 36 36 35 35 33 33 33 33 34 38 40 38 42 46 47 49 48 51 48 49 46 41 38 36 33 32
24 27 27 26 26 31 35 37 43 54 51 50 48 48 43 40 38 34 31 34 35 35 37 39 39 41 42 42 44 43 41 48 49 51 53 50 50 50 51 38 39 36 35
21 28 24 23 22 25 30 34 36 48 53 49 48 47 44 43 39 38 37 38 39 39 40 39 41 42 44 47 46 45 45 45 47 46 46 49 50 44 50 43 43 39 37
20 23 21 18 19 22 25 32 31 42 51 49 47 45 45 43 43 41 40 41 41 40 40 42 44 44 47 50 47 50 51 51 50 45 46 51 49 50 52 48 45 43 37
17 22 18 14 12 15 24 26 29 35 45 46 46 46 44 43 42 35 36 37 35 35 38 39 39 36 33 33 34 31 33 42 43 51 44 46 53 53 56 54 45 46 43
13 12 9 13 14 14 18 24 28 36 46 46 43 41 41 39 36 32 31 30 30 26 29 28 26 25 24 21 26 29 33 40 40 41 47 48 46 54 53 53 51 46 47
17 7 1 10 12 11 22 20 20 32 46 44 39 39 38 33 33 32 28 23 27 24 20 16 24 17 22 25 25 29 30 35 37 43 55 52 54 50 55 48 44 46 51
23 29 31 19 6 8 11 21 21 23 36 41 39 38 34 34 31 25 21 22 21 27 24 30 24 13 17 8 10 21 24 26 27 25 31 33 31 36 39 46 50 51 56
22 23 27 32 30 24 16 13 18 18 18 20 25 29 27 26 19 20 17 15 14 20 23 17 7 5 17 18 14 17 23 23 22 28 35 41 46 48 48 51 56 59 59
20 21 22 24 28 32 35 29 23 18 8 16 15 21 18 20 15 13 14 16 12 11 11 12 15 16 17 19 21 22 24 24 31 29 34 36 41 43 44 48 53 59 61
19 20 21 24 24 27 28 23 16 15 13 17 14 15 18 8 11 7 14 16 13 11 10 15 19 18 20 24 25 28 28 32 33 35 37 41 41 47 48 49 53 53 52
18 20 20 21 20 20 19 16 13 9 9 9 6 4 3 6 8 11 13 16 17 17 19 22 24 26 29 31 33 35 36 38 38 38 38 43 49 48 49 50 54 54 53
15 18 18 17 16 16 15 13 11 9 7 5 1 2 5 8 11 14 16 18 21 23 25 27 30 32 34 35 38 40 43 46 48 51 53 54 54 53 50 51 45 47 53
11 12 14 14 13 12 11 10 9 8 6 5 5 6 8 11 13 16 19 21 24 26 28 31 34 36 38 40 43 46 49 50 52 55 58 60 62 63 65 66 71 68 66
7 8 9 11 13 13 11 9 6 5 5 6 8 10 12 14 17 20 22 24 26 28 30 32 35 36 39 43 47 51 53 55 56 58 59 61 64 66 68 69 71 72 70
4 5 7 8 9 9 9 9 9 8 8 9 11 12 15 18 20 21 23 24 25 27 29 31 34 36 40 43 46 49 54 58 60 62 65 65 63 62 61 62 67 69 67
5 7 8 10 12 13 13 13 12 12 12 13 14 16 18 19 20 21 22 23 25 27 28 29 31 31 32 33 35 36 37 38 38 36 36 38 39 42 47 50 49 51 58
7 8 10 11 13 14 16 16 16 16 17 18 18 19 21 23 24 25 25 26 27 27 28 30 30 29 29 32 34 36 33 30 29 30 30 33 37 41 41 42 42 44 50
11 11 12 13 14 15 17 18 19 19 20 21 22 23 24 26 27 28 28 28 29 30 31 32 33 32 31 34 35 35 35 33 30 28 29 32 35 39 42 40 41 47 48
14 15 17 18 19 20 21 21 20 20 21 23 24 25 26 27 29 30 31 31 30 32 34 34 33 31 30 30 31 31 33 33 33 33 33 35 37 36 39 39 40 44 45
17 18 19 19 20 20 21 22 24 25 26 27 29 29 30 30 31 32 33 34 34 34 35 34 31 31 28 29 27 28 29 32 34 35 34 32 34 34 34 35 37 40 37
20 20 20 21 21 22 22 23 25 26 27 29 30 31 33 33 33 33 33 33 35 36 36 36 33 27 23 23 25 25 27 30 33 34 34 36 35 32 32 31 32 31 28
23 23 22 22 23 23 24 25 26 26 27 30 31 32 33 33 33 33 34 34 34 35 36 38 36 33 29 28 29 28 28 30 32 32 34 36 36 33 30 29 26 23 27
25 24 24 23 23 24 24 24 27 29 31 32 33 34 34 33 32 33 33 34 35 37 39 39 38 39 35 31 32 33 32 34 37 38 37 34 29 27 28 25 23 21 22
27 25 25 25 25 25 25 27 28 29 31 33 34 35 34 34 33 32 32 34 34 33 36 37 38 36 36 36 36 33 32 34 37 38 36 27 24 24 24 20 18 19 21
Wind_Direction
287 284 286 280 259 250 235 229 226 228 229 230 231 233 236 242 254 250 254 266 270 267 269 274 268 265 269 271 270 267 263 263 265 273 261 241 240 245 247 250 253 257 260
287 290 292 282 264 251 238 234 224 223 226 228 231 235 237 245 243 248 262 265 265 266 266 272 273 270 274 267 268 270 269 268 261 265 255 240 250 242 243 249 251 253 258
292 298 290 285 275 247 239 231 230 221 222 226 229 233 239 243 247 252 254 259 261 264 268 275 277 271 273 272 263 265 268 264 260 257 260 242 240 259 243 243 251 251 258
291 303 292 280 271 244 235 228 226 219 218 223 228 233 237 241 247 249 252 260 266 271 276 280 276 269 266 274 266 265 266 260 260 264 260 253 268 253 242 236 243 249 255
294 303 285 282 268 246 225 223 226 221 216 220 225 229 234 240 245 255 258 258 266 273 278 274 271 268 270 272 266 264 264 259 257 256 262 257 255 243 240 236 240 245 251
289 312 297 272 263 247 222 215 226 225 216 220 227 230 231 234 248 254 262 275 276 271 272 275 278 274 272 268 267 266 262 253 262 256 263 257 259 261 244 245 235 249 245
279 293 286 271 251 235 234 213 215 218 214 219 226 232 235 239 249 260 270 275 279 283 276 265 266 265 274 272 272 265 255 253 262 257 259 255 256 261 249 244 245 242 246
22 341 264 212 245 270 231 220 212 213 213 220 225 233 236 245 255 253 263 266 267 261 274 284 262 258 267 264 254 259 259 259 261 259 259 259 249 247 248 250 251 257 258
46 52 59 70 61 36 167 199 208 208 217 223 228 234 235 232 239 248 248 258 273 265 274 275 276 242 263 280 282 256 260 262 268 270 259 257 251 248 253 251 249 254 259
35 34 38 36 56 93 115 152 169 198 210 216 222 222 224 231 232 244 242 253 283 262 260 257 249 207 229 245 254 241 256 250 263 267 260 253 258 260 254 258 256 250 256
36 41 45 50 42 84 93 94 123 123 155 191 198 211 194 211 213 226 256 272 292 252 256 284 274 267 266 253 267 267 268 253 272 275 274 269 260 261 263 262 257 257 257
39 37 44 47 56 60 65 61 70 74 90 114 138 133 183 224 253 245 238 279 281 287 244 262 258 272 262 266 276 271 271 269 272 272 267 264 258 262 266 268 268 268 268
27 42 37 37 45 53 62 75 88 88 83 83 87 116 178 228 245 254 266 276 284 284 272 272 269 269 268 268 266 268 267 268 268 267 267 266 261 261 262 261 264 266 272
26 28 39 42 37 41 43 47 58 62 65 68 44 282 269 270 275 278 280 280 280 280 280 281 279 277 275 275 273 271 269 264 265 265 265 264 261 260 257 258 255 259 256
24 26 24 26 30 36 36 35 33 32 20 359 332 309 299 292 288 284 284 285 284 286 287 287 287 286 285 283 280 277 275 272 270 267 266 265 263 261 261 261 259 262 255
8 17 21 14 11 11 9 5 0 356 342 323 312 306 303 300 299 298 295 292 293 293 291 291 289 290 290 290 288 286 284 282 280 277 274 271 269 267 265 264 262 261 262
336 349 0 4 1 351 344 337 331 325 322 313 308 310 313 312 309 304 300 297 292 289 288 287 286 283 280 277 277 279 282 281 280 280 280 281 282 283 280 274 268 265 263
313 325 335 340 343 345 339 330 324 320 318 316 318 317 315 312 309 303 299 297 296 295 294 293 293 292 292 291 288 284 280 280 285 287 289 291 294 294 292 291 285 271 265
300 311 322 327 331 334 335 327 320 315 317 318 317 317 320 319 316 311 308 307 305 302 304 305 307 310 308 309 307 306 305 308 306 302 305 310 310 303 298 290 284 271 256
299 307 316 321 322 322 322 321 316 315 316 316 318 319 319 319 318 316 314 312 311 312 312 315 318 320 321 315 311 308 310 313 309 310 311 307 298 295 294 289 278 270 263
303 310 316 319 320 318 316 317 315 313 312 313 314 315 316 317 317 317 315 313 314 317 320 322 319 315 314 309 305 304 307 307 305 304 304 300 297 290 287 287 279 274 275
298 304 309 310 311 310 308 311 316 317 316 317 318 317 318 318 317 316 316 318 318 316 316 317 317 315 311 303 299 296 301 304 305 307 306 303 300 292 286 283 281 277 277
291 296 300 304 306 308 309 312 316 316 314 315 316 318 318 318 317 317 316 313 313 314 313 313 313 311 307 304 303 299 302 307 306 303 299 303 306 298 294 285 282 282 276
284 289 294 299 302 306 308 309 312 313 313 314 316 316 314 313 314 315 313 311 310 309 312 316 318 322 325 321 314 310 307 311 312 307 300 297 300 295 293 285 279 277 272
280 284 289 294 298 303 305 306 312 315 316 317 316 314 311 311 311 311 312 311 312 316 319 321 321 323 326 325 322 319 320 319 318 314 309 305 298 288 289 282 274 273 282
276 281 285 291 296 300 303 305 309 313 315 315 313 311 310 309 310 312 313 315 314 317 317 316 318 321 322 323 322 318 316 318 315 311 308 302 297 295 294 289 285 287 279